When you browse on this site, cookies collect data to enhance your experience and personalize the content and advertising you see.
Visit our Privacy Policy to learn more. By continuing to use the site, you agree to this use of cookies and data.
  • In France
  • List of Countries
  • For 7 days
  • Water Temperature
  • Satellite Maps
  • Weather Map
  • Weather Widgets
  • user-avatar
    Login

    Hourly Weather Garoue

    Today, 19 June, Wednesday

    Time Temperature Precipitation Wind Pressure Humidity
    00:00 +32°C° 0 mm 8 mps 718 mmHg 43%
    01:00 +31°C° 0 mm 9 mps 718 mmHg 47%
    02:00 +31°C° 0 mm 10 mps 718 mmHg 50%
    03:00 +29°C° 0 mm 11 mps 718 mmHg 53%
    04:00 +28°C° 0 mm 11 mps 718 mmHg 56%
    05:00 +28°C° 0 mm 11 mps 718 mmHg 58%
    06:00 +27°C° 0 mm 11 mps 719 mmHg 60%
    07:00 +28°C° 0 mm 12 mps 719 mmHg 57%
    08:00 +29°C° 0 mm 12 mps 719 mmHg 53%
    09:00 +32°C° 0 mm 13 mps 720 mmHg 49%
    10:00 +33°C° 0 mm 13 mps 719 mmHg 46%
    11:00 +34°C° 0 mm 13 mps 719 mmHg 43%
    12:00 +36°C° 0 mm 13 mps 718 mmHg 39%
    13:00 +37°C° 0 mm 13 mps 718 mmHg 38%
    14:00 +37°C° 0 mm 12 mps 717 mmHg 36%
    15:00 +38°C° 0 mm 12 mps 716 mmHg 34%
    16:00 +37°C° 0 mm 11 mps 717 mmHg 35%
    17:00 +37°C° 0 mm 10 mps 717 mmHg 36%
    18:00 +35°C° 0 mm 9 mps 717 mmHg 37%
    19:00 +35°C° 0 mm 8 mps 717 mmHg 38%
    20:00 +34°C° 0 mm 8 mps 718 mmHg 39%
    21:00 +34°C° 0 mm 7 mps 718 mmHg 40%
    22:00 +33°C° 0 mm 8 mps 718 mmHg 41%
    23:00 +33°C° 0 mm 9 mps 718 mmHg 43%

    Tomorrow, 20 June, Thursday

    Time Temperature Precipitation Wind Pressure Humidity
    00:00 +32°C° 0 mm 9 mps 718 mmHg 44%
    01:00 +31°C° 0 mm 10 mps 717 mmHg 49%
    02:00 +31°C° 0 mm 10 mps 717 mmHg 53%
    03:00 +29°C° 0 mm 11 mps 717 mmHg 57%
    04:00 +28°C° 0 mm 11 mps 717 mmHg 60%
    05:00 +28°C° 0 mm 11 mps 718 mmHg 62%
    06:00 +28°C° 0 mm 11 mps 718 mmHg 64%
    07:00 +29°C° 0 mm 12 mps 718 mmHg 60%
    08:00 +31°C° 0 mm 12 mps 719 mmHg 56%
    09:00 +32°C° 0 mm 13 mps 719 mmHg 53%
    10:00 +33°C° 0 mm 13 mps 719 mmHg 49%
    11:00 +34°C° 0 mm 12 mps 718 mmHg 45%
    12:00 +36°C° 0 mm 12 mps 718 mmHg 41%
    13:00 +36°C° 0 mm 12 mps 718 mmHg 40%
    14:00 +37°C° 0 mm 11 mps 717 mmHg 38%
    15:00 +37°C° 0 mm 11 mps 716 mmHg 37%
    16:00 +37°C° 0 mm 10 mps 716 mmHg 38%
    17:00 +35°C° 0 mm 9 mps 717 mmHg 39%
    18:00 +35°C° 0 mm 8 mps 717 mmHg 39%
    19:00 +34°C° 0 mm 8 mps 717 mmHg 40%
    20:00 +34°C° 0 mm 8 mps 718 mmHg 40%
    21:00 +33°C° 0 mm 7 mps 718 mmHg 41%
    22:00 +33°C° 0 mm 7 mps 718 mmHg 43%
    23:00 +32°C° 0 mm 8 mps 718 mmHg 45%

    Day after tomorrow, 21 June, Friday

    Time Temperature Precipitation Wind Pressure Humidity
    00:00 +31°C° 0 mm 8 mps 718 mmHg 47%
    01:00 +31°C° 0 mm 9 mps 718 mmHg 50%
    02:00 +29°C° 0 mm 9 mps 717 mmHg 53%
    03:00 +28°C° 0 mm 10 mps 717 mmHg 56%
    04:00 +28°C° 0 mm 10 mps 718 mmHg 59%
    05:00 +27°C° 0 mm 11 mps 718 mmHg 62%
    06:00 +27°C° 0 mm 11 mps 719 mmHg 65%
    07:00 +28°C° 0 mm 12 mps 719 mmHg 62%
    08:00 +29°C° 0 mm 12 mps 719 mmHg 58%
    09:00 +31°C° 0 mm 13 mps 720 mmHg 54%
    10:00 +32°C° 0 mm 13 mps 719 mmHg 50%
    11:00 +33°C° 0 mm 13 mps 719 mmHg 47%
    12:00 +34°C° 0 mm 12 mps 719 mmHg 43%
    13:00 +34°C° 0 mm 12 mps 718 mmHg 42%
    14:00 +34°C° 0 mm 11 mps 717 mmHg 41%
    15:00 +36°C° 0 mm 11 mps 717 mmHg 40%
    16:00 +34°C° 0 mm 10 mps 717 mmHg 41%
    17:00 +34°C° 0 mm 9 mps 717 mmHg 42%
    18:00 +33°C° 0 mm 8 mps 717 mmHg 43%
    19:00 +33°C° 0 mm 8 mps 718 mmHg 44%
    20:00 +33°C° 0 mm 7 mps 718 mmHg 45%
    21:00 +32°C° 0 mm 7 mps 718 mmHg 46%
    22:00 +32°C° 0 mm 7 mps 718 mmHg 48%
    23:00 +30°C° 0 mm 7 mps 718 mmHg 50%

    22 June, Saturday

    Time Temperature Precipitation Wind Pressure Humidity
    00:00 +31°C° 0 mm 8 mps 718 mmHg 52%
    01:00 +29°C° 0 mm 8 mps 718 mmHg 55%
    02:00 +29°C° 0 mm 8 mps 717 mmHg 57%
    03:00 +28°C° 0 mm 9 mps 717 mmHg 60%
    04:00 +28°C° 0 mm 9 mps 717 mmHg 63%
    05:00 +27°C° 0 mm 9 mps 718 mmHg 64%
    06:00 +27°C° 0 mm 10 mps 718 mmHg 66%
    07:00 +28°C° 0 mm 10 mps 719 mmHg 62%
    08:00 +28°C° 0 mm 11 mps 719 mmHg 58%
    09:00 +29°C° 0 mm 12 mps 719 mmHg 55%
    10:00 +31°C° 0 mm 11 mps 719 mmHg 50%
    11:00 +32°C° 0 mm 11 mps 719 mmHg 46%
    12:00 +33°C° 0 mm 11 mps 718 mmHg 42%
    13:00 +34°C° 0 mm 10 mps 718 mmHg 41%
    14:00 +34°C° 0 mm 10 mps 717 mmHg 40%
    15:00 +36°C° 0 mm 10 mps 716 mmHg 39%
    16:00 +34°C° 0 mm 9 mps 716 mmHg 40%
    17:00 +34°C° 0 mm 8 mps 717 mmHg 41%
    18:00 +33°C° 0 mm 7 mps 717 mmHg 42%
    19:00 +33°C° 0 mm 7 mps 717 mmHg 43%
    20:00 +32°C° 0 mm 6 mps 718 mmHg 44%
    21:00 +32°C° 0 mm 5 mps 718 mmHg 45%
    22:00 +32°C° 0 mm 5 mps 718 mmHg 46%
    23:00 +30°C° 0 mm 5 mps 717 mmHg 47%

    23 June, Sunday

    Time Temperature Precipitation Wind Pressure Humidity
    00:00 +30°C° 0 mm 5 mps 717 mmHg 48%
    01:00 +29°C° 0 mm 5 mps 717 mmHg 50%
    02:00 +29°C° 0 mm 5 mps 717 mmHg 51%
    03:00 +29°C° 0 mm 6 mps 716 mmHg 52%
    04:00 +28°C° 0 mm 6 mps 717 mmHg 56%
    05:00 +28°C° 0 mm 7 mps 717 mmHg 59%
    06:00 +27°C° 0 mm 8 mps 717 mmHg 62%
    07:00 +28°C° 0 mm 9 mps 718 mmHg 58%
    08:00 +29°C° 0 mm 10 mps 718 mmHg 55%
    09:00 +31°C° 0 mm 10 mps 719 mmHg 52%
    10:00 +32°C° 0 mm 10 mps 718 mmHg 48%
    11:00 +33°C° 0 mm 10 mps 718 mmHg 44%
    12:00 +35°C° 0 mm 9 mps 717 mmHg 40%
    13:00 +35°C° 0 mm 9 mps 717 mmHg 38%
    14:00 +37°C° 0 mm 9 mps 716 mmHg 36%
    15:00 +37°C° 0 mm 8 mps 716 mmHg 34%
    16:00 +37°C° 0 mm 8 mps 716 mmHg 34%
    17:00 +36°C° 0 mm 7 mps 716 mmHg 34%
    18:00 +35°C° 0 mm 6 mps 716 mmHg 34%
    19:00 +35°C° 0 mm 6 mps 717 mmHg 35%
    20:00 +34°C° 0 mm 5 mps 717 mmHg 37%
    21:00 +33°C° 0 mm 5 mps 717 mmHg 38%
    22:00 +33°C° 0 mm 5 mps 717 mmHg 41%
    23:00 +32°C° 0 mm 6 mps 717 mmHg 44%

    24 June, Monday

    Time Temperature Precipitation Wind Pressure Humidity
    00:00 +30°C° 0 mm 6 mps 717 mmHg 48%
    01:00 +29°C° 0 mm 7 mps 717 mmHg 52%
    02:00 +28°C° 0 mm 7 mps 717 mmHg 56%
    03:00 +28°C° 0 mm 8 mps 716 mmHg 60%
    04:00 +27°C° 0 mm 8 mps 717 mmHg 62%
    05:00 +27°C° 0 mm 8 mps 717 mmHg 64%
    06:00 +27°C° 0 mm 8 mps 718 mmHg 66%
    07:00 +28°C° 0 mm 9 mps 718 mmHg 61%
    08:00 +29°C° 0 mm 10 mps 719 mmHg 57%
    09:00 +31°C° 0 mm 11 mps 719 mmHg 52%
    10:00 +33°C° 0 mm 10 mps 719 mmHg 47%
    11:00 +34°C° 0 mm 10 mps 718 mmHg 43%
    12:00 +36°C° 0 mm 10 mps 718 mmHg 39%
    13:00 +37°C° 0 mm 10 mps 717 mmHg 37%
    14:00 +37°C° 0 mm 9 mps 717 mmHg 35%
    15:00 +38°C° 0 mm 9 mps 716 mmHg 33%
    16:00 +38°C° 0 mm 8 mps 716 mmHg 33%
    17:00 +37°C° 0 mm 8 mps 716 mmHg 34%
    18:00 +37°C° 0 mm 8 mps 716 mmHg 34%
    19:00 +35°C° 0 mm 7 mps 717 mmHg 36%
    20:00 +34°C° 0 mm 7 mps 717 mmHg 38%
    21:00 +34°C° 0 mm 6 mps 718 mmHg 40%
    22:00 +33°C° 0 mm 6 mps 718 mmHg 43%
    23:00 +32°C° 0 mm 6 mps 717 mmHg 45%
    Show more